Date,TemperatureHighF,TemperatureAvgF,TemperatureLowF,DewpointHighF,DewpointAvgF,DewpointLowF,HumidityHigh,HumidityAvg,HumidityLow,PressureMaxIn,PressureMinIn,WindSpeedMaxMPH,WindSpeedAvgMPH,GustSpeedMaxMPH,PrecipitationSumIn
2013-4-1,33,24,17,21,14,9,71,65,58,30.30,30.15,22,10,22,0.00
2013-4-2,36,27,19,22,16,11,73,63,52,30.39,30.28,18,6,18,0.00
2013-4-3,49,34,19,35,22,8,68,61,57,30.42,30.05,32,10,32,0.00
2013-4-4,49,41,32,34,30,20,72,63,52,30.21,30.03,26,10,26,0.00
2013-4-5,43,34,26,30,24,16,80,68,55,30.28,29.87,26,9,26,0.00
2013-4-6,55,43,36,45,35,29,79,74,66,29.87,29.54,24,11,24,0.25
2013-4-7,50,42,34,41,34,28,79,75,68,29.96,29.77,16,5,16,0.21
2013-4-8,48,43,40,42,38,35,84,82,77,30.07,29.72,21,8,21,0.64
2013-4-9,42,37,32,35,30,26,83,76,65,30.19,30.02,34,13,34,0.51
2013-4-10,37,34,31,28,27,24,83,75,65,30.22,29.90,28,12,28,0.05
2013-4-11,38,34,29,32,28,25,87,80,72,29.93,29.67,30,12,30,0.40
2013-4-12,44,34,27,37,28,23,85,77,65,29.89,29.70,16,6,16,0.01
2013-4-13,47,36,28,35,27,20,79,68,56,30.32,29.88,11,4,11,0.01
2013-4-14,36,33,30,32,27,22,84,77,67,29.95,29.48,29,12,29,0.31
2013-4-15,45,37,32,35,29,25,82,73,65,29.99,29.51,34,12,34,0.01
2013-4-16,44,38,32,32,28,25,75,69,61,30.34,29.99,17,7,17,0.00
2013-4-17,41,37,34,32,28,25,82,72,67,30.35,29.90,24,9,24,0.12
2013-4-18,34,32,31,30,29,27,89,85,82,29.95,29.53,34,16,34,0.00
2013-4-19,42,34,28,31,26,18,89,75,59,30.03,29.54,35,16,35,0.01
2013-4-20,47,33,18,31,21,10,74,62,49,30.34,30.03,11,4,11,0.00
2013-4-21,54,43,34,43,34,20,77,71,58,30.35,30.04,30,11,30,0.15
2013-4-22,42,36,32,32,30,28,85,76,65,30.25,30.15,27,11,27,0.01
2013-4-23,41,34,25,30,26,20,85,72,59,30.24,30.08,20,8,20,0.02
2013-4-24,52,38,27,37,28,18,76,67,52,30.12,29.90,31,7,31,0.02
2013-4-25,54,42,31,40,32,24,77,68,56,30.18,30.02,21,8,21,0.01
2013-4-26,71,57,44,53,42,33,71,59,46,30.13,29.95,26,9,26,0.00
2013-4-27,76,59,39,51,40,25,64,50,38,30.14,29.88,27,4,27,0.00
2013-4-28,82,66,52,58,48,40,68,54,37,29.88,29.65,28,11,28,0.06
2013-4-29,77,62,47,54,46,37,68,55,40,29.85,29.51,16,7,16,0.00
2013-4-30,68,64,55,57,47,36,72,55,35,29.98,29.40,21,10,21,0.00